Nashville, TN

3:56 PM CDT on March 27, 2017 (GMT -0500)
Nashville International

Weather History for KBNA - June, 2013

Change the Weather History Date:

Monday, June 24, 2013

  Actual Average Record
Temperature  
Mean Temperature 81 °F 78 °F  
Max Temperature 93 °F 88 °F 102 °F (1952)
Min Temperature 69 °F 68 °F 48 °F (1972)
Degree Days  
Heating Degree Days 0    
Month to date heating degree days 0  
Since 1 June heating degree days 0  
Since 1 July heating degree days 3532  
Cooling Degree Days 16    
Month to date cooling degree days 278  
Year to date cooling degree days 485  
Since 1 June cooling degree days 278  
Growing Degree Days 31 (Base 50)    
Moisture  
Dew Point 68 °F    
Average Humidity 71    
Maximum Humidity 93    
Minimum Humidity 49    
Precipitation  
Precipitation T in 0.12 in 1.99 in (2016)
Month to date precipitation 4.47 3.38  
Year to date precipitation 28.91 24.68  
Snow  
Snow 0.00 in - 0.00 in (2002)
Month to date snowfall 0.0  
Since 1 June snowfall 0.0  
Since 1 July snowfall 1.3  
Snow Depth 0.00 in    
Sea Level Pressure  
Sea Level Pressure 30.11 in    
Wind  
Wind Speed 5 mph (South)    
Max Wind Speed 18 mph    
Max Gust Speed 24 mph    
Visibility 10 miles    
Events      
T = Trace of Precipitation, MM = Missing Value Source: NWS Daily Summary

Daily Weather History Graph

Daily Weather History Graph

Search for Another Location

Airport or City:

Trip Planner

Search our weather history database for the weather conditions in past years. The results will help you decide how hot, cold, wet, or windy it might be!

Date:

Astronomy

Jun. 24, 2013 Rise Set
Actual Time 5:30 AM CDT 8:07 PM CDT
Civil Twilight 5:00 AM CDT 8:37 PM CDT
Nautical Twilight 4:22 AM CDT 9:15 PM CDT
Astronomical Twilight 3:40 AM CDT 9:57 PM CDT
Moon 9:13 PM CDT (6/24) 6:54 AM CDT (6/24)
Length of Visible Light 15h 37m
Length of Day
14h 36m
Full, 98% of the Moon is Illuminated
Jun 24
Full
Jun 29
Last Quarter
Jul 8
New
Jul 15
First Quarter
Jul 22
Full

Hourly Weather History & Observations

Time (CDT) Temp. Heat Index Dew Point Humidity Pressure Visibility Wind Dir Wind Speed Gust Speed Precip Events Conditions
12:53 AM 72.0 °F - 66.0 °F 81% 30.10 in 10.0 mi South 5.8 mph - N/A   Scattered Clouds
1:53 AM 70.0 °F - 66.0 °F 87% 30.09 in 10.0 mi South 4.6 mph - N/A   Scattered Clouds
2:53 AM 71.1 °F - 66.0 °F 84% 30.09 in 10.0 mi SSE 5.8 mph - N/A   Mostly Cloudy
3:53 AM 70.0 °F - 66.0 °F 87% 30.10 in 10.0 mi SSE 4.6 mph - N/A   Scattered Clouds
4:53 AM 70.0 °F - 66.0 °F 87% 30.11 in 10.0 mi South 3.5 mph - N/A   Scattered Clouds
5:53 AM 71.1 °F - 66.0 °F 84% 30.13 in 10.0 mi Calm Calm - N/A   Scattered Clouds
6:53 AM 73.0 °F - 68.0 °F 84% 30.14 in 10.0 mi Calm Calm - N/A   Scattered Clouds
7:53 AM 78.1 °F - 68.0 °F 71% 30.15 in 10.0 mi SSW 4.6 mph - N/A   Scattered Clouds
8:53 AM 82.9 °F 86.5 °F 69.1 °F 63% 30.17 in 10.0 mi WSW 5.8 mph - N/A   Scattered Clouds
9:53 AM 84.0 °F 87.8 °F 69.1 °F 61% 30.17 in 10.0 mi SW 5.8 mph - N/A   Scattered Clouds
10:53 AM 88.0 °F 92.1 °F 69.1 °F 53% 30.16 in 10.0 mi SSW 8.1 mph - N/A   Mostly Cloudy
11:53 AM 84.9 °F 88.2 °F 68.0 °F 57% 30.14 in 10.0 mi SW 5.8 mph - N/A   Mostly Cloudy
12:53 PM 87.1 °F 91.3 °F 69.1 °F 55% 30.13 in 10.0 mi West 4.6 mph - 0.00 in   Mostly Cloudy
1:53 PM 90.0 °F 93.6 °F 68.0 °F 48% 30.09 in 10.0 mi SW 4.6 mph - N/A   Mostly Cloudy
2:53 PM 91.0 °F 95.6 °F 69.1 °F 48% 30.08 in 10.0 mi NNE 15.0 mph 21.9 mph N/A   Mostly Cloudy
3:53 PM 82.9 °F 86.5 °F 69.1 °F 63% 30.08 in 10.0 mi ESE 18.4 mph 24.2 mph N/A   Mostly Cloudy
4:53 PM 73.9 °F - 69.1 °F 85% 30.10 in 10.0 mi South 9.2 mph - 0.00 in   Mostly Cloudy
5:53 PM 75.0 °F - 69.1 °F 82% 30.08 in 10.0 mi South 8.1 mph - N/A   Mostly Cloudy
6:53 PM 75.0 °F - 69.1 °F 82% 30.07 in 10.0 mi Calm Calm - N/A   Mostly Cloudy
7:53 PM 73.9 °F - 69.1 °F 85% 30.08 in 10.0 mi SE 3.5 mph - N/A   Mostly Cloudy
8:53 PM 73.0 °F - 68.0 °F 84% 30.08 in 10.0 mi Calm Calm - N/A   Scattered Clouds
9:53 PM 71.1 °F - 69.1 °F 93% 30.09 in 10.0 mi Calm Calm - N/A   Scattered Clouds
10:53 PM 71.1 °F - 69.1 °F 93% 30.09 in 10.0 mi South 4.6 mph - N/A   Partly Cloudy
11:53 PM 71.1 °F - 69.1 °F 93% 30.09 in 10.0 mi South 4.6 mph - N/A   Partly Cloudy